Location: Kumla
(59.1265°N, 15.1401°E)
Time: 17:38:48
(UTC+01:00)

A-11 Canister half - Pass Details

Date: 08 December 2023
Orbit: 1512 x 1687 km, 47.2° (Epoch: 25 February)

Event Time Altitude Azimuth Distance (km) Brightness Sun altitude
Rises 05:55:54 0° 279° (W) 4,853 - -18.7°
Reaches altitude 10° 06:00:05 10° 264° (W) 3,892 - -18.2°
Exits shadow 06:02:37 16° 251° (WSW) 3,464 10.4 -17.9°
Maximum altitude 06:06:35 20° 223° (SW) 3,190 10.4 -17.4°
Drops below altitude 10° 06:13:12 10° 181° (S) 3,941 11.3 -16.6°
Sets 06:17:30 0° 166° (SSE) 4,933 12.1 -16.1°
